Regional Weather Roundup
Issued by NWS

Home | Current Version | Previous Version | Text Only | Print | Product List | Glossary On
Versions: 1 2 3 4 5 6 7 8 9 10 11 12 13 14 15 16 17 18 19 20 21 22 23 24 25 26 27 28 29 30 31 32 33 34 35 36 37 38 39 40 41 42 43 44 45 46 47 48 49 50
000
ASUS43 KLSX 191959
RWRMO

WEATHER SUMMARY FOR MISSOURI
NATIONAL WEATHER SERVICE SPRINGFIELD MO
300 PM CDT FRI SEP 19 2014

NOTE: "FAIR" INDICATES FEW OR NO CLOUDS BELOW 12,000 FEET WITH NO
       SIGNIFICANT WEATHER AND/OR OBSTRUCTIONS TO VISIBILITY.
       CURRENT SKY AND/OR WEATHER CONDITIONS ARE NOT AVAILABLE FOR
       CHILLICOTHE AND FARMINGTON.

MOZ001>031-035>038-043-044-053-054-192100-
...NORTHERN AND WESTERN MISSOURI...

CITY           SKY/WX    TMP DP  RH WIND       PRES   REMARKS
KANSAS CTY INT PTSUNNY   72  67  84 S12       29.98F
KANSAS C DTWN  PTSUNNY   77  67  71 S8        29.97F
LEE`S SUMMIT   CLOUDY    75  67  76 SE9       30.00F
ST JOSEPH      PTSUNNY   77  68  73 SE12      29.95F
KIRKSVILLE     SUNNY     76  60  57 S13       30.01F

$$
MOZ066>068-077>081-088>096-101>105-192100-
...SOUTHWEST MISSOURI...

CITY           SKY/WX    TMP DP  RH WIND       PRES   REMARKS
SPRINGFIELD    CLOUDY    78  64  61 S10       30.02F
JOPLIN         PTSUNNY   79  69  71 SW6       30.01F

$$
MOZ032>034-039>042-045>050-055>058-069>072-192100-
...CENTRAL MISSOURI...

CITY           SKY/WX    TMP DP  RH WIND       PRES   REMARKS
COLUMBIA       PTSUNNY   76  62  62 SE8       30.03F
JEFFERSON CITY MOSUNNY   77  59  53 VRB6      30.01F
ROLLA          MOSUNNY   77  60  55 S8        30.02F
SEDALIA        PTSUNNY   78  64  61 E12       30.02F
OSAGE BEACH    PTSUNNY   77  61  57 SE6       30.03F

$$
MOZ051-052-059>065-192100-
...EAST CENTRAL MISSOURI...

CITY           SKY/WX    TMP DP  RH WIND       PRES   REMARKS
ST LOUIS INTL  MOSUNNY   79  57  46 S6        30.04F
SPIRIT OF STL  MOSUNNY   77  58  51 S7        30.02F
ST CHARLES     SUNNY     77  57  50 S7        30.03F

$$
MOZ072>076-082>087-097>100-106>115-192100-
...SOUTH CENTRAL AND SOUTHEAST MISSOURI...

CITY           SKY/WX    TMP DP  RH WIND       PRES   REMARKS
CAPE GIRARDEAU SUNNY     79  59  50 SE6       30.02F
FARMINGTON     PTSUNNY   79  59  50 SE5       30.06F
POPLAR BLUFF   SUNNY     81  59  47 E6        30.01F
WEST PLAINS    MOSUNNY   78  60  53 SE9       30.05F

$$



USA.gov is the U.S. government's official web portal to all federal, state and local government web resources and services.